Location: Buckenweiler
(49.0667°N, 10.2500°E)
Time: 15:45:16
(UTC+00:00)

CZ-4C R/B - Pass Details

Date: 18 January 2026
Orbit: 483 x 1496 km, 63.4° (Epoch: 10 February)

Event Time Altitude Azimuth Distance (km) Brightness Sun altitude
Exits shadow 06:00:11 - 321° (NW) 2,865 4.4 -10.5°
Reaches altitude 10° 06:00:39 10° 323° (NW) 2,709 4.3 -10.5°
Maximum altitude 06:07:00 50° 38° (NE) 1,446 3.5 -9.5°
Drops below altitude 10° 06:14:58 10° 112° (ESE) 3,395 7.1 -8.3°
Sets 06:18:15 0° 117° (ESE) 4,471 8.4 -7.8°
